H-2A R/B

Last updated on Sat Jun 20 2026 00:02:14 GMT+0000 (Coordinated Universal Time)

1 43682U 18084L 26170.58902688 .00016903 00000+0 35427-3 0 9998 2 43682 98.8568 50.0032 0023254 32.4127 327.8540 15.45231454421497
UTC large
Height (km)
Speed (km/s)
/
Latitude / Longitude
Inclination (degrees)
Orbital Period (minutes)
Azimuth
Elevation
Range (km)
Doppler Factor

Next 0 passes for location: London (51.5072 / 0.1276)

Sorry there are no passes over London.
H-2A R/B